Regional Weather Roundup
Issued by NWS Charleston, WV

Home | Current Version | Previous Version | Graphics & Text | Print | Product List | Glossary On
Versions: 1 2 3 4 5 6 7 8 9 10 11 12 13 14 15 16 17 18 19 20 21 22 23 24 25 26 27 28 29 30 31 32 33 34 35 36 37 38 39 40 41 42 43 44 45 46 47 48 49 50
000
ASUS41 KRLX 270310
RWRRLX
West Virginia Regional Weather Roundup
National Weather Service Charleston WV
1100 PM EDT TUE MAY 26 2015

Note: "fair" indicates few or no clouds below 12,000 feet with no
significant weather and/or obstructions to visibility.

WVZ003-270400-
Northern Panhandle of West Virginia

CITY           SKY/WX    TMP DP  RH WIND       PRES   REMARKS
WHEELING       NOT AVBL
$$

WVZ009-270400-
Northwest West Virginia

CITY           SKY/WX    TMP DP  RH WIND       PRES   REMARKS
PARKERSBURG    TSTM      67  65  93 VRB7G17   30.13R FOG
$$

WVZ006-270400-
Western West Virginia

CITY           SKY/WX    TMP DP  RH WIND       PRES   REMARKS
HUNTINGTON     CLOUDY    72  64  76 MISG      30.10R
$$

WVZ015-270400-
West Central West Virginia

CITY           SKY/WX    TMP DP  RH WIND       PRES   REMARKS
CHARLESTON     CLOUDY    71  67  87 CALM      30.08F
$$

WVZ022-031-270400-
North Central West Virginia

CITY           SKY/WX    TMP DP  RH WIND       PRES   REMARKS
CLARKSBURG     PTCLDY    74  63  68 S8        30.10S
MORGANTOWN     CLEAR     76  59  55 S7        30.11R
$$

WVZ025-035-042-045-270400-
Southern West Virginia

CITY           SKY/WX    TMP DP  RH WIND       PRES   REMARKS
BECKLEY        MOCLDY    70  61  73 S10G17    30.20R
LOGAN            N/A     77  63  61 SE3       30.10R
BLUEFIELD      MOCLDY    73  60  63 S9G20     30.25R
LEWISBURG      MOCLDY    69  63  81 CALM      30.24R
$$

WVZ047-270400-
Northern Mountains of West Virginia

CITY           SKY/WX    TMP DP  RH WIND       PRES   REMARKS
ELKINS         CLEAR     70  61  73 S8        30.17S
$$

WVZ052-270400-
Eastern Panhandle of West Virginia

CITY           SKY/WX    TMP DP  RH WIND       PRES   REMARKS
MARTINSBURG    MOCLDY    72  67  84 CALM      30.14S
PETERSBURG     CLEAR     70  60  70 CALM      30.16F
$$


USA.gov is the U.S. government's official web portal to all federal, state and local government web resources and services.